Location: Góry Miechowskie
(50.3599°N, 20.1803°E)
Time: 16:03:28
(UTC+00:00)

Tiros 1 - Pass Details

Date: 21 September 2024
Orbit: 623 x 654 km, 48.4° (Epoch: 11 October)

Event Time Altitude Azimuth Distance (km) Brightness Sun altitude
Rises 17:09:42 0° 281° (W) 2,906 13.4 -5.7°
Reaches altitude 10° 17:12:12 10° 271° (W) 2,000 11.5 -6.1°
Maximum altitude 17:16:14 31° 209° (SSW) 1,111 8.6 -6.8°
Drops below altitude 10° 17:20:17 10° 148° (SSE) 2,007 9.3 -7.4°
Enters shadow 17:22:09 - 140° (SE) 2,675 9.9 -7.7°
